Location: Remedello Sotto
(45.2500°N, 10.3667°E)
Time: 12:02:27
(UTC+00:00)

RESURS DK-1 - Pass Details

Date: 03 February 2023
Orbit: 549 x 557 km, 69.9° (Epoch: 20 March)

Event Time Altitude Azimuth Distance (km) Brightness Sun altitude
Rises 18:14:10 0° 331° (NNW) 2,740 6.2 -18.9°
Reaches altitude 10° 18:16:23 10° 330° (NNW) 1,843 5.3 -19.3°
Maximum altitude 18:20:30 79° 244° (WSW) 571 2.4 -20.0°
Enters shadow 18:23:12 21° 160° (SSE) 1,286 4.0 -20.5°
